Location: Tucson
(32.2217°N, 110.9265°W)
Time: 07:15:13
(UTC-07:00)

deb Explorer IX - All Passes

Search period start: 25 October 2021 00:00
Search period end: 04 November 2021 00:00
Orbit: 546 x 1089 km, 38.8° (Epoch: 24 October)

Date Brightness Start Highest point End Pass type
(mag) Time Alt. Az. Time Alt. Az. Time Alt. Az.
25 Oct - 00:58:00 10° SW 01:04:46 44° SE 01:11:13 10° ENE night (unlit)
25 Oct - 02:44:49 10° WSW 02:51:58 75° NNW 02:58:25 10° ENE visible
25 Oct - 04:33:12 10° WNW 04:39:42 47° N 04:45:23 10° ENE visible
25 Oct - 06:21:20 10° WNW 06:27:27 57° NNE 06:32:41 10° E daylight
25 Oct - 08:08:58 10° WNW 08:14:27 53° SSW 08:19:07 10° SE daylight
25 Oct - 22:52:14 10° SE 22:53:36 11° SE 22:54:57 10° ESE night (unlit)
26 Oct - 00:33:17 10° SW 00:40:03 43° SE 00:46:36 10° ENE night (unlit)
26 Oct - 02:20:03 10° WSW 02:27:16 75° NNW 02:33:53 10° ENE visible
26 Oct - 04:08:25 10° WNW 04:15:03 47° N 04:20:55 10° ENE visible
26 Oct - 05:56:33 10° WNW 06:02:52 57° NNE 06:08:16 10° E visible
26 Oct - 07:44:14 10° WNW 07:49:54 54° SSW 07:54:44 10° SE daylight
26 Oct - 22:27:51 10° SE 22:28:55 10° SE 22:29:59 10° SE night (unlit)
27 Oct - 00:08:36 10° SW 00:15:20 43° SE 00:21:56 10° ENE night (unlit)
27 Oct - 01:55:17 10° WSW 02:02:32 76° NNW 02:09:18 10° ENE visible
27 Oct - 03:43:37 10° WNW 03:50:22 48° N 03:56:25 10° ENE visible
27 Oct - 05:31:45 10° WNW 05:38:14 58° NNE 05:43:49 10° E visible
27 Oct - 07:19:27 10° WNW 07:25:20 56° SSW 07:30:20 10° SE daylight
27 Oct - 09:10:04 10° WSW 09:11:14 11° SW 09:12:22 10° SSW daylight
27 Oct - 22:03:46 10° SE 22:04:14 10° SE 22:04:41 10° SE night (unlit)
27 Oct - 23:43:55 10° SSW 23:50:35 43° SE 23:57:16 10° ENE night (unlit)
28 Oct - 01:30:32 10° WSW 01:37:49 76° NNW 01:44:42 10° ENE night (unlit)
28 Oct - 03:18:49 10° WNW 03:25:40 49° N 03:31:53 10° ENE visible
28 Oct - 05:06:57 10° WNW 05:13:36 59° NNE 05:19:20 10° E visible
28 Oct - 06:54:40 10° WNW 07:00:45 57° SSW 07:05:55 10° SE daylight
28 Oct - 08:44:55 10° WSW 08:46:41 12° SW 08:48:22 10° SSW daylight
28 Oct - 23:19:14 10° SSW 23:25:51 43° SE 23:32:33 10° ENE night (unlit)
29 Oct - 01:05:47 10° WSW 01:13:03 77° NNW 01:20:04 10° ENE night (unlit)
29 Oct - 02:54:01 10° WNW 03:00:57 49° N 03:07:18 10° ENE visible
29 Oct - 04:42:08 10° WNW 04:48:55 59° NNE 04:54:50 10° E visible
29 Oct - 06:29:51 10° WNW 06:36:07 58° SSW 06:41:28 10° SE daylight
29 Oct - 08:19:53 10° WSW 08:22:07 12° SW 08:24:14 10° SSW daylight
29 Oct - 22:54:34 10° SSW 23:01:05 42° SE 23:07:48 10° ENE night (unlit)
30 Oct - 00:41:03 10° WSW 00:48:16 77° NNW 00:55:23 10° ENE night (unlit)
30 Oct - 02:29:12 10° WNW 02:36:12 50° N 02:42:43 10° ENE visible
30 Oct - 04:17:18 10° WNW 04:24:12 59° NNE 04:30:18 10° E visible
30 Oct - 06:05:02 10° WNW 06:11:28 60° SSW 06:17:00 10° SE visible
30 Oct - 07:54:52 10° WSW 07:57:31 13° SW 08:00:00 10° SSW daylight
30 Oct - 22:29:55 10° SSW 22:36:20 42° SE 22:43:02 10° ENE night (unlit)
31 Oct - 00:16:19 10° WSW 00:23:30 78° NNW 00:30:41 10° ENE night (unlit)
31 Oct - 02:04:24 10° W 02:11:26 50° N 02:18:05 10° ENE visible
31 Oct - 03:52:29 10° WNW 03:59:29 60° NNE 04:05:45 10° E visible
31 Oct - 05:40:11 10° WNW 05:46:48 61° SSW 05:52:31 10° SE visible
31 Oct - 07:29:52 10° WSW 07:32:54 14° SW 07:35:43 10° SSW daylight
31 Oct - 22:05:17 10° SSW 22:11:33 41° SE 22:18:14 10° ENE night (unlit)
31 Oct - 23:51:35 10° WSW 23:58:42 78° NNW 00:05:57 10° ENE night (unlit)
01 Nov - 01:39:37 10° W 01:46:39 51° N 01:53:25 10° ENE night (unlit)
01 Nov - 03:27:39 10° WNW 03:34:44 60° NNE 03:41:09 10° E visible
01 Nov - 05:15:20 10° WNW 05:22:06 62° SSW 05:27:58 10° SE visible
01 Nov - 07:04:54 10° WSW 07:08:15 15° SW 07:11:23 10° SSW daylight
01 Nov - 21:40:39 10° SSW 21:46:47 40° SE 21:53:25 10° ENE night (unlit)
01 Nov - 23:26:53 10° WSW 23:33:54 78° NNW 23:41:11 10° ENE night (unlit)
02 Nov - 01:14:50 10° W 01:21:51 51° N 01:28:42 10° ENE night (unlit)
02 Nov - 03:02:48 10° WNW 03:09:57 60° NNE 03:16:31 10° E visible
02 Nov - 04:50:29 10° WNW 04:57:22 63° SSW 05:03:26 10° SE visible
02 Nov - 06:39:55 10° W 06:43:34 16° SW 06:47:00 10° S daylight
02 Nov - 21:16:03 10° SSW 21:22:02 39° SE 21:28:33 10° ENE night (unlit)
02 Nov - 23:02:11 10° WSW 23:09:05 79° NNW 23:16:23 10° ENE night (unlit)
03 Nov - 00:50:03 10° W 00:57:02 51° N 01:03:58 10° ENE night (unlit)
03 Nov - 02:37:59 10° WNW 02:45:09 60° NNE 02:51:52 10° E visible
03 Nov - 04:25:37 10° WNW 04:32:37 64° SSW 04:38:50 10° SE visible
03 Nov - 06:14:57 10° W 06:18:54 17° SW 06:22:34 10° S visible
03 Nov - 20:51:27 10° SSW 20:57:15 38° SE 21:03:41 10° ENE visible
03 Nov - 22:37:29 10° WSW 22:44:16 79° NNW 22:51:34 10° ENE night (unlit)
